Location: Bathsheba
(13.2167°N, 59.5167°W)
Time: 23:22:46
(UTC+00:00)

Okean-O - Pass Details

Date: 18 September 2020
Orbit: 639 x 641 km, 98.2° (Epoch: 20 October)

Event Time Altitude Azimuth Distance (km) Brightness Sun altitude
Rises 22:49:24 0° 170° (S) 2,933 5.9 -13.7°
Reaches altitude 10° 22:51:36 10° 172° (S) 2,025 5.1 -14.2°
Maximum altitude 22:56:01 78° 258° (WSW) 656 2.7 -15.3°
Drops below altitude 10° 23:00:26 10° 345° (NNW) 2,026 5.5 -16.3°
Sets 23:02:38 0° 346° (NNW) 2,935 6.3 -16.9°
